AXM1590 WMKP-VTSP

Flight info

Callsign AXM1590
Flight time 0h 43m
Altitude 32000
Route GOGO1A GOGOM Y351 DUBAX R325 URGAD URGA1C
Aircraft A320/L-V/N

Departure

Time 2026-05-08 03:21
Airport Penang International Airport (WMKP)

Arrival

Time 2026-05-08 04:04
Airport Phuket International Airport (VTSP)
Time Latitude Longitude Altitude Speed Heading
2026-05-08 03:20 5.37896 100.32718 3714 ft 248 kts 341°
2026-05-08 03:21 5.39573 100.32053 4210 ft 266 kts 338°
2026-05-08 03:21 5.41336 100.31336 4892 ft 275 kts 339°
2026-05-08 03:21 5.42992 100.30703 5676 ft 278 kts 341°
2026-05-08 03:21 5.44828 100.30041 6527 ft 281 kts 341°
2026-05-08 03:22 5.46684 100.29397 7368 ft 284 kts 343°
2026-05-08 03:22 5.48574 100.28758 8192 ft 288 kts 343°
2026-05-08 03:22 5.50484 100.28121 9017 ft 291 kts 343°
2026-05-08 03:22 5.52430 100.27473 9836 ft 295 kts 344°
2026-05-08 03:23 5.54383 100.26829 10565 ft 300 kts 344°
2026-05-08 03:23 5.56385 100.26168 11253 ft 307 kts 344°
2026-05-08 03:23 5.58458 100.25486 11983 ft 311 kts 344°
2026-05-08 03:23 5.60520 100.24807 12694 ft 315 kts 344°
2026-05-08 03:24 5.62616 100.24118 13371 ft 320 kts 344°
2026-05-08 03:24 5.64753 100.23414 14051 ft 324 kts 344°
2026-05-08 03:24 5.66943 100.22689 14740 ft 328 kts 345°
2026-05-08 03:24 5.69095 100.21979 15384 ft 331 kts 345°
2026-05-08 03:25 5.71329 100.21342 16029 ft 333 kts 350°
2026-05-08 03:25 5.73643 100.20891 16669 ft 335 kts 355°
2026-05-08 03:25 5.75953 100.20596 17280 ft 337 kts 356°
2026-05-08 03:25 5.78327 100.20319 17894 ft 340 kts 356°
2026-05-08 03:26 5.80680 100.20050 18484 ft 343 kts 356°
2026-05-08 03:26 5.83081 100.19773 19059 ft 347 kts 356°
2026-05-08 03:26 5.85536 100.19487 19635 ft 350 kts 356°
2026-05-08 03:26 5.87972 100.19202 20185 ft 353 kts 356°
2026-05-08 03:27 5.90432 100.18913 20718 ft 356 kts 356°
2026-05-08 03:27 5.92917 100.18622 21237 ft 359 kts 356°
2026-05-08 03:27 5.95426 100.18327 21757 ft 362 kts 356°
2026-05-08 03:27 5.97934 100.18031 22248 ft 365 kts 355°
2026-05-08 03:28 6.00488 100.17728 22750 ft 368 kts 356°
2026-05-08 03:28 6.03040 100.17427 23245 ft 371 kts 356°
2026-05-08 03:28 6.05622 100.17124 23754 ft 374 kts 355°
2026-05-08 03:28 6.08243 100.16814 24252 ft 377 kts 355°
2026-05-08 03:29 6.10860 100.16505 24747 ft 379 kts 356°
2026-05-08 03:29 6.13527 100.16192 25228 ft 382 kts 355°
2026-05-08 03:29 6.16194 100.15879 25692 ft 385 kts 355°
2026-05-08 03:29 6.18845 100.15567 26140 ft 387 kts 355°
2026-05-08 03:30 6.24268 100.14928 27020 ft 392 kts 355°
2026-05-08 03:30 6.29743 100.14284 27873 ft 397 kts 355°
2026-05-08 03:31 6.35297 100.13631 28688 ft 402 kts 355°
2026-05-08 03:31 6.40887 100.12709 29432 ft 410 kts 343°
2026-05-08 03:32 6.43521 100.11527 29804 ft 415 kts 330°
2026-05-08 03:32 6.45874 100.09798 30172 ft 419 kts 318°
2026-05-08 03:32 6.47929 100.07659 30581 ft 422 kts 313°
2026-05-08 03:32 6.49882 100.05473 30958 ft 424 kts 313°
2026-05-08 03:33 6.51891 100.03211 31349 ft 426 kts 313°
2026-05-08 03:33 6.53848 100.01019 31709 ft 428 kts 313°
2026-05-08 03:33 6.55893 99.98740 31849 ft 429 kts 313°
2026-05-08 03:34 6.59913 99.94283 31863 ft 428 kts 313°
2026-05-08 03:34 6.63921 99.89852 31855 ft 427 kts 313°
2026-05-08 03:35 6.67953 99.85398 31854 ft 427 kts 313°
2026-05-08 03:35 6.71958 99.80971 31869 ft 427 kts 313°
2026-05-08 03:36 6.75977 99.76527 31875 ft 427 kts 313°
2026-05-08 03:36 6.79988 99.72096 31860 ft 426 kts 313°
2026-05-08 03:37 6.83755 99.67932 31852 ft 425 kts 313°
2026-05-08 03:37 6.87757 99.63510 31857 ft 425 kts 313°
2026-05-08 03:38 6.91726 99.59120 31857 ft 424 kts 313°
2026-05-08 03:38 6.95710 99.54712 31854 ft 424 kts 313°
2026-05-08 03:39 6.99697 99.50297 31852 ft 423 kts 313°
2026-05-08 03:39 7.03714 99.45966 31853 ft 423 kts 314°
2026-05-08 03:40 7.07794 99.41637 31393 ft 426 kts 314°
2026-05-08 03:40 7.09820 99.39481 30904 ft 423 kts 314°
2026-05-08 03:40 7.11867 99.37309 30411 ft 421 kts 315°
2026-05-08 03:40 7.13864 99.35195 29931 ft 419 kts 315°
2026-05-08 03:41 7.15861 99.33071 29458 ft 416 kts 314°
2026-05-08 03:41 7.17844 99.30950 28997 ft 413 kts 314°
2026-05-08 03:41 7.19825 99.28830 28543 ft 411 kts 314°
2026-05-08 03:41 7.21776 99.26743 28097 ft 409 kts 314°
2026-05-08 03:42 7.23727 99.24656 27649 ft 407 kts 314°
2026-05-08 03:42 7.25678 99.22571 27207 ft 404 kts 314°
2026-05-08 03:42 7.27606 99.20511 26757 ft 402 kts 314°
2026-05-08 03:42 7.29517 99.18471 26317 ft 399 kts 314°
2026-05-08 03:43 7.31421 99.16437 25892 ft 397 kts 314°
2026-05-08 03:43 7.33336 99.14391 25466 ft 394 kts 314°
2026-05-08 03:43 7.35213 99.12386 25043 ft 392 kts 314°
2026-05-08 03:43 7.37085 99.10386 24622 ft 390 kts 314°
2026-05-08 03:44 7.38941 99.08401 24192 ft 389 kts 314°
2026-05-08 03:44 7.40798 99.06419 23759 ft 387 kts 314°
2026-05-08 03:44 7.42637 99.04454 23337 ft 386 kts 314°
2026-05-08 03:44 7.44493 99.02470 22914 ft 384 kts 314°
2026-05-08 03:45 7.46295 99.00545 22510 ft 382 kts 314°
2026-05-08 03:45 7.48118 98.98598 22114 ft 379 kts 314°
2026-05-08 03:45 7.49919 98.96672 21715 ft 378 kts 314°
2026-05-08 03:45 7.51719 98.94747 21303 ft 376 kts 314°
2026-05-08 03:46 7.53512 98.92830 20900 ft 374 kts 314°
2026-05-08 03:46 7.55314 98.90905 20488 ft 373 kts 314°
2026-05-08 03:46 7.57084 98.89011 20081 ft 372 kts 314°
2026-05-08 03:46 7.58855 98.87117 19676 ft 370 kts 314°
2026-05-08 03:47 7.60600 98.85252 19273 ft 368 kts 315°
2026-05-08 03:47 7.62355 98.83373 18861 ft 366 kts 314°
2026-05-08 03:47 7.64096 98.81510 18458 ft 365 kts 315°
2026-05-08 03:47 7.65832 98.79652 18062 ft 363 kts 314°
2026-05-08 03:48 7.67572 98.77791 17668 ft 361 kts 314°
2026-05-08 03:48 7.69276 98.75967 17282 ft 359 kts 314°
2026-05-08 03:48 7.70999 98.74122 16890 ft 357 kts 314°
2026-05-08 03:48 7.72669 98.72327 16510 ft 355 kts 314°
2026-05-08 03:49 7.74356 98.70505 16127 ft 352 kts 314°
2026-05-08 03:49 7.76007 98.68670 15730 ft 351 kts 309°
2026-05-08 03:49 7.77197 98.66545 15340 ft 350 kts 290°
2026-05-08 03:49 7.77763 98.64176 14965 ft 348 kts 279°
2026-05-08 03:50 7.78123 98.61797 14591 ft 346 kts 278°
2026-05-08 03:50 7.78466 98.59396 14216 ft 344 kts 278°
2026-05-08 03:50 7.78825 98.57024 13848 ft 341 kts 279°
2026-05-08 03:50 7.79199 98.54679 13479 ft 339 kts 279°
2026-05-08 03:51 7.79584 98.52325 13106 ft 337 kts 279°
2026-05-08 03:51 7.79965 98.50019 12745 ft 335 kts 279°
2026-05-08 03:51 7.80489 98.47745 12381 ft 333 kts 288°
2026-05-08 03:51 7.81366 98.45597 12015 ft 329 kts 297°
2026-05-08 03:52 7.82411 98.43562 11662 ft 326 kts 299°
2026-05-08 03:52 7.83478 98.41564 11333 ft 323 kts 299°
2026-05-08 03:52 7.84545 98.39560 10994 ft 320 kts 299°
2026-05-08 03:52 7.85592 98.37579 10662 ft 318 kts 299°
2026-05-08 03:53 7.86611 98.35637 10322 ft 316 kts 299°
2026-05-08 03:53 7.87639 98.33665 9979 ft 313 kts 298°
2026-05-08 03:53 7.88641 98.31727 9689 ft 309 kts 298°
2026-05-08 03:53 7.89627 98.29819 9378 ft 306 kts 298°
2026-05-08 03:54 7.90609 98.27924 9063 ft 303 kts 298°
2026-05-08 03:54 7.91579 98.26056 8749 ft 300 kts 298°
2026-05-08 03:54 7.92535 98.24215 8439 ft 298 kts 298°
2026-05-08 03:54 7.93496 98.22366 8126 ft 296 kts 298°
2026-05-08 03:55 7.94455 98.20519 7805 ft 294 kts 298°
2026-05-08 03:55 7.95403 98.18694 7487 ft 292 kts 298°
2026-05-08 03:55 7.96331 98.16906 7174 ft 290 kts 298°
2026-05-08 03:55 7.97269 98.15100 6861 ft 288 kts 298°
2026-05-08 03:56 7.98194 98.13319 6553 ft 286 kts 298°
2026-05-08 03:56 7.98994 98.11476 6226 ft 285 kts 285°
2026-05-08 03:56 7.99188 98.09504 5914 ft 284 kts 266°
2026-05-08 03:56 7.99008 98.07520 5616 ft 282 kts 263°
2026-05-08 03:57 7.98805 98.05567 5377 ft 276 kts 269°
2026-05-08 03:57 7.99201 98.03755 5291 ft 260 kts 303°
2026-05-08 03:57 8.00481 98.02551 5075 ft 249 kts 339°
2026-05-08 03:57 8.02127 98.02241 4834 ft 241 kts 360°
2026-05-08 03:58 8.03823 98.02194 4575 ft 239 kts
2026-05-08 03:58 8.05470 98.02122 4446 ft 229 kts 359°
2026-05-08 03:58 8.07047 98.02103 4398 ft 222 kts 13°
2026-05-08 03:58 8.08347 98.02856 4301 ft 220 kts 53°
2026-05-08 03:59 8.08877 98.04276 4034 ft 217 kts 86°
2026-05-08 03:59 8.08938 98.05778 3808 ft 216 kts 86°
2026-05-08 03:59 8.09039 98.07307 3569 ft 216 kts 85°
2026-05-08 03:59 8.09163 98.08807 3332 ft 215 kts 84°
2026-05-08 04:00 8.09297 98.10329 3100 ft 215 kts 84°
2026-05-08 04:00 8.09434 98.11832 2867 ft 214 kts 84°
2026-05-08 04:00 8.09572 98.13332 2641 ft 214 kts 84°
2026-05-08 04:00 8.09712 98.14835 2552 ft 214 kts 84°
2026-05-08 04:01 8.09850 98.16294 2468 ft 204 kts 84°
2026-05-08 04:01 8.09982 98.17686 2369 ft 195 kts 84°
2026-05-08 04:01 8.10116 98.19036 2206 ft 196 kts 83°
2026-05-08 04:01 8.10258 98.20396 1919 ft 195 kts 83°
2026-05-08 04:02 8.10397 98.21762 1663 ft 194 kts 83°
2026-05-08 04:02 8.10527 98.23088 1487 ft 183 kts 83°
2026-05-08 04:02 8.10646 98.24339 1230 ft 172 kts 84°
2026-05-08 04:02 8.10758 98.25499 1002 ft 160 kts 84°
2026-05-08 04:03 8.10854 98.26559 791 ft 148 kts 84°
2026-05-08 04:03 8.11025 98.28612 415 ft 145 kts 84°
2026-05-08 04:03 8.11117 98.29610 222 ft 143 kts 82°
2026-05-08 04:04 8.11218 98.30611 98 ft 138 kts 85°
2026-05-08 04:04 8.11301 98.31471 90 ft 101 kts 82°
2026-05-08 04:04 8.11352 98.32006 90 ft 56 kts 84°
2026-05-08 04:04 8.11361 98.32307 90 ft 28 kts 99°
2026-05-08 04:05 8.11316 98.32437 90 ft 12 kts 114°
2026-05-08 04:05 8.11257 98.32452 90 ft 12 kts 249°
2026-05-08 04:05 8.11247 98.32361 90 ft 13 kts 265°
2026-05-08 04:05 8.11238 98.32263 90 ft 14 kts 264°
2026-05-08 04:06 8.11228 98.32160 90 ft 14 kts 265°
2026-05-08 04:06 8.11220 98.32059 90 ft 14 kts 264°
2026-05-08 04:06 8.11209 98.31961 90 ft 14 kts 264°
2026-05-08 04:06 8.11201 98.31850 90 ft 17 kts 266°
2026-05-08 04:07 8.11188 98.31714 90 ft 20 kts 264°
2026-05-08 04:07 8.11172 98.31560 90 ft 23 kts 264°
2026-05-08 04:07 8.11155 98.31386 90 ft 25 kts 264°
2026-05-08 04:07 8.11138 98.31197 90 ft 27 kts 264°
2026-05-08 04:08 8.11117 98.30999 90 ft 28 kts 255°
2026-05-08 04:08 8.11072 98.30813 90 ft 26 kts 264°
2026-05-08 04:08 8.11055 98.30639 90 ft 23 kts 264°
2026-05-08 04:08 8.11017 98.30488 90 ft 21 kts 213°
2026-05-08 04:09 8.10890 98.30454 90 ft 12 kts 194°
2026-05-08 04:09 8.10845 98.30506 90 ft 10 kts 99°
2026-05-08 04:09 8.10838 98.30537 90 ft 0 kts 104°
2026-05-08 04:09 8.10837 98.30541 90 ft 0 kts 104°